TimeEST,TemperatureF,Dew PointF,Humidity,Sea Level PressureIn,VisibilityMPH,Wind Direction,Wind SpeedMPH,Gust SpeedMPH,PrecipitationIn,Events,Conditions,WindDirDegrees,DateUTC
12:54 AM,15.1,-0.9,49,29.68,-9999.0,WNW,24.2,39.1,N/A,,Unknown,300,2013-02-18 05:54:00
1:54 AM,14.0,-0.9,52,29.71,-9999.0,WNW,21.9,34.5,N/A,,Unknown,300,2013-02-18 06:54:00
2:54 AM,12.9,-0.9,54,29.73,-9999.0,WNW,25.3,39.1,N/A,,Unknown,290,2013-02-18 07:54:00
3:54 AM,12.0,-2.0,53,29.78,-9999.0,WNW,17.3,33.4,N/A,,Unknown,290,2013-02-18 08:54:00
4:54 AM,12.9,-2.0,51,29.81,-9999.0,WNW,23.0,32.2,N/A,,Unknown,300,2013-02-18 09:54:00
5:54 AM,12.0,-2.0,53,29.84,-9999.0,WNW,25.3,35.7,N/A,,Unknown,290,2013-02-18 10:54:00
6:54 AM,12.0,-2.0,53,29.89,-9999.0,WNW,23.0,36.8,N/A,,Unknown,300,2013-02-18 11:54:00
7:54 AM,14.0,-2.0,49,29.91,-9999.0,WNW,24.2,39.1,N/A,,Unknown,290,2013-02-18 12:54:00
8:54 AM,17.1,-0.0,47,29.94,-9999.0,WNW,29.9,41.4,N/A,,Unknown,290,2013-02-18 13:54:00
9:54 AM,19.9,-0.0,42,29.95,-9999.0,WNW,25.3,44.9,N/A,,Unknown,290,2013-02-18 14:54:00
10:54 AM,23.0,-0.0,37,29.96,-9999.0,WNW,21.9,38.0,N/A,,Unknown,300,2013-02-18 15:54:00
11:54 AM,26.1,-0.0,32,29.98,-9999.0,WNW,18.4,35.7,N/A,,Unknown,290,2013-02-18 16:54:00
12:54 PM,28.0,-0.9,29,29.99,-9999.0,NW,23.0,40.3,N/A,,Unknown,310,2013-02-18 17:54:00
1:54 PM,28.9,-0.9,28,30.01,-9999.0,WNW,18.4,34.5,N/A,,Unknown,300,2013-02-18 18:54:00
2:54 PM,30.0,-2.0,25,30.02,-9999.0,West,11.5,25.3,N/A,,Unknown,280,2013-02-18 19:54:00
3:54 PM,28.0,-2.0,27,30.04,-9999.0,West,19.6,28.8,N/A,,Unknown,270,2013-02-18 20:54:00
4:54 PM,27.0,-2.9,27,30.07,-9999.0,West,16.1,32.2,N/A,,Unknown,280,2013-02-18 21:54:00
5:54 PM,25.0,-4.0,28,30.09,-9999.0,West,18.4,24.2,N/A,,Unknown,270,2013-02-18 22:54:00
6:54 PM,24.1,-4.0,29,30.12,-9999.0,West,9.2,-,N/A,,Unknown,260,2013-02-18 23:54:00
8:54 PM,21.9,-0.9,37,30.15,-9999.0,West,15.0,19.6,N/A,,Unknown,260,2013-02-19 01:54:00
9:54 PM,21.9,-0.9,37,30.15,-9999.0,West,15.0,-,N/A,,Unknown,260,2013-02-19 02:54:00
10:54 PM,21.9,-0.9,37,30.16,-9999.0,West,17.3,25.3,N/A,,Unknown,270,2013-02-19 03:54:00
11:54 PM,21.0,-0.9,38,30.16,-9999.0,West,17.3,-,N/A,,Unknown,270,2013-02-19 04:54:00